YAOGAN 17A              
1 39239U 13046A   19264.58027380 -.00000089  00000-0  11129-5 0  9992
2 39239  63.4086 302.8040 0206224   4.0795 356.1853 13.45187268297377
YAOGAN 17B              
1 39240U 13046B   19265.17525079 -.00000136  00000-0 -68920-4 0  9992
2 39240  63.4085 301.4077 0206018   3.8974 356.3597 13.45186505297459
YAOGAN 17C              
1 39241U 13046C   19265.54673152 -.00000144  00000-0 -79974-4 0  9990
2 39241  63.4097 299.5345 0206843   3.8784 356.3788 13.45186715297526
CZ-4C R/B               
1 39242U 13046D   19264.78407352 -.00000098  00000-0 -90391-6 0  9999
2 39242  63.4524  61.1334 0363741 357.7889   2.1525 13.69792134302831
CZ-4C DEB               
1 39243U 13046E   19264.14402464 -.00000056  00000-0  50030-4 0  9996
2 39243  63.4080 312.4903 0215764   6.7267 353.6573 13.44335601297111
CZ-4C DEB               
1 39244U 13046F   19265.48561551 -.00000045  00000-0  68022-4 0  9996
2 39244  63.4090 312.8311 0213824   6.1661 354.1919 13.43991244297218